Balise packet - vue carte · info · télémétrie · météo · trame · statuts · balises · messages · bulletins · naviguer · bouger · Mon compte
Indicatif originel:
Affiche:

Charge beacon trames ...

Les données des balises APRS sont conservées 14 jours. Il est possible de faire une recherche en utilisant les jokers ( *?) après un préfixe.

2019-05-21 08:41:58 CDT: WX5II-10>ID: NORTH SAT
2019-05-21 08:41:58 CDT: KA0GFC-3>BEACON: <UI>:
2019-05-21 08:42:16 CDT: ED2ZAD-3>BEACON: Asociacion Radioaficionados Bilbainos -
2019-05-21 08:42:17 CDT: N3KTX-3>BEACON: MasonDixon A.P.R.S. Group at 146.895- with IRLP 7070
2019-05-21 08:42:20 CDT: KC3FIT-1>BEACON: cstg.homestead.com Central Susquehanna Technical Group
2019-05-21 08:42:20 CDT: WEBER1>ID: WEBER1/R KD7FDH-1/B
2019-05-21 08:42:24 CDT: VA3RVH-10>BEACON: Winlink 2000 RMS Packet Server
2019-05-21 08:42:25 CDT: WHTNY>BEACON: KD5DMT-5 APRS Digipeater
2019-05-21 08:42:26 CDT: N6ZX>BEACON: N6ZX Kings Mt. ARC, bbs KMBBS, KaNode WOODY, knet WBAY
2019-05-21 08:42:27 CDT: N8HEE-5>ID: Node (EATON) N8HEE-5 BPQ Net/Rom Switch Charlotte Michigan
2019-05-21 08:42:27 CDT: DK4SDR-3>UIDIGI: UIDIGI 1.9
2019-05-21 08:42:30 CDT: N9LYA-8>ID: Node: N9LYA - OPEN-NET - APRS & BBS NETWORK NODE LYANOD/N9LYA-8 Mitchell, IN Lawrence County - MidWest HF Skipnet Hub.
2019-05-21 08:42:31 CDT: 9A3XK>BEACON: CRLNet.108 - SysOp 9a3XK & 9a7kxp-Internet via DJWIRELES http://djw.hr/
2019-05-21 08:42:32 CDT: IZ4EFV>ID: IZ4EFV/R
2019-05-21 08:42:35 CDT: KE0AE>BEACON: Genoa, Colo. WX/APRS Digi Station Voice 147.060 PL 103.5
2019-05-21 08:42:35 CDT: VA3PPI-4>ID: Wunderground WX Station VA3PPI ISCUGOG7
2019-05-21 08:42:36 CDT: DB0FIG>ID: DB0FIG/R
2019-05-21 08:42:37 CDT: WB2ZII-15>ID: WB2ZII-15/R RELAY/R TRACE/R WIDE1-1/R TRACE1-1/R
2019-05-21 08:42:38 CDT: 9A3XK>BEACON: Power 9W Gain 3dB Height 240m Ant omni
2019-05-21 08:42:41 CDT: VK5RLH-1>UIDIGI: UIDIGI 1.9
2019-05-21 08:41:43 CDT: W7PKT>ID: W7PKT/R
2019-05-21 08:41:59 CDT: WB2SNN-15>ID: WB2SNN-15/R WB2SNN-1/B
2019-05-21 08:42:06 CDT: WALSH>BEACON: WX5ASA 444.65*000000z3458.58N/09924.62Wp_100.0 Tone ALTUS SKYWARN
2019-05-21 08:42:07 CDT: W4NN-1>BEACON: W4NN-1 Wn EARS DIGI EGLIN AFB FL
2019-05-21 08:42:13 CDT: JAYUYA>BEACON: KP4IA APRS DIGI EL CACIQUE - JAYUYA - KP4IA-3 PBBS 144.390 MHz
2019-05-21 08:42:21 CDT: N0PBA-1>UIDIGI: UIDIGI 1.9
2019-05-21 08:42:23 CDT: W0ZRT-7>UIDIGI: UIDIGI 1.9
2019-05-21 08:42:26 CDT: W5HCT>ID: W5HCT/R WIDE1-1/D NONE/B
2019-05-21 08:42:31 CDT: W6BXN-3>ID: W6BXN-3/R TARC/D BULN/N
2019-05-21 08:42:46 CDT: IQ0GH>BEACON: Digipeater -U=13.3V - IQ0GH ARI-RE Citta' di castello PG
2019-05-21 08:42:45 CDT: YM2IMT>UIDIGI: UIDIGI 1.9
2019-05-21 08:42:48 CDT: W0OFK-4>BEACON: 146.730- *111111z4201.88N/09721.45WrT131 Net 7:30pm Mon EVARC
2019-05-21 08:42:48 CDT: W2WCR-2>UIDIGI: UIDIGI 1.9
2019-05-21 08:42:55 CDT: W4KPR>ID: W4KPR/R RELAY/D KN6KB-7/N
2019-05-21 08:42:58 CDT: KC4PL-12>BEACON: z
2019-05-21 08:42:59 CDT: F5TND-4>ID: F5TND/R
2019-05-21 08:42:59 CDT: WX6HNX-6>BEACON: National Weather Service remote weather station Huron, CA
2019-05-21 08:43:04 CDT: VE7JP>BEACON: VE7CVA-3 MOBILE EMCOM DIGI
2019-05-21 08:43:06 CDT: SP2ZIE-2>UIDIGI: UIDIGI 1.9
2019-05-21 08:43:08 CDT: ED2YAL-15>UIDIGI: UIDIGI 1.9
2019-05-21 08:42:48 CDT: WX5II-2>ID: UVALDE,TX
2019-05-21 08:42:49 CDT: AB5I-5>ID: PANDALE,TX
2019-05-21 08:42:50 CDT: K2KZ-4>ID: K2KZ/R
2019-05-21 08:42:55 CDT: IZ6IQA-2>UIDIGI: UIDIGI*1.9
2019-05-21 08:42:56 CDT: EA2BKH-3>UIDIGI: UIDIGI 1.9
2019-05-21 08:43:02 CDT: MTCLMN>BEACON: W8FSM/WA8MAC
2019-05-21 08:43:07 CDT: ZS4OIL-1>ID: ZS4OIL-1/R ZS4OIL-3/G
2019-05-21 08:43:11 CDT: ED7ZAD-3>BEACON: W2-2 /ESAN2-2 /Port-1/Via DIGI CORDOBA
2019-05-21 08:43:11 CDT: IR5UAU>ID: IR5UAU/R IR5UAU/D
2019-05-21 08:43:16 CDT: NG5V-2>UIDIGI: UIDIGI 1.9
< précédent
FAQ · Blog · Groupe de discussion · Lien vers aprs.fi · Sites AIS · Statut du service · Statistiques de la base de données · Publicité sur aprs.fi · Détails techniques · API · Journal des changements · Modifications futures · Droits et remerciements · Conditions d'utilisation · iPhone/iPad APRS